Total_Precipitation_Accumulation
0.22 0.19 0.18 0.21 0.24 0.27 0.31 0.37 0.54 0.70 0.86 0.99 1.13 1.38 1.54 1.64 1.63 1.63 1.70 1.62 1.44 1.52 1.63 1.60 1.82 1.89 1.86 1.85 1.80 1.92 1.93 1.66 1.49 1.73 1.70 1.29 1.02 0.91 0.93 0.98 1.01 1.04 1.04
0.15 0.14 0.13 0.14 0.14 0.17 0.22 0.30 0.44 0.68 0.92 1.15 1.33 1.52 1.84 2.00 2.00 2.06 2.01 1.96 1.85 1.87 1.79 1.87 2.08 2.13 2.23 2.32 2.16 2.28 2.33 2.03 1.73 2.09 2.48 1.98 1.57 1.03 0.84 0.93 1.03 1.13 1.17
0.13 0.13 0.11 0.11 0.10 0.10 0.15 0.22 0.34 0.57 0.88 1.19 1.45 1.64 1.88 2.14 2.24 2.15 2.10 2.13 2.21 2.26 2.15 2.11 2.23 2.25 2.32 2.51 2.55 2.49 2.55 2.46 2.16 2.12 2.52 2.37 2.03 1.61 1.06 0.94 1.03 1.17 1.25
0.14 0.12 0.10 0.09 0.10 0.12 0.14 0.18 0.32 0.48 0.72 0.99 1.32 1.57 1.84 2.15 2.22 2.20 2.17 2.21 2.33 2.42 2.38 2.33 2.39 2.39 2.35 2.47 2.56 2.53 2.73 2.88 2.60 2.34 2.11 2.02 2.02 2.00 1.55 1.13 1.08 1.25 1.31
0.17 0.15 0.13 0.13 0.15 0.17 0.19 0.25 0.39 0.54 0.74 0.98 1.30 1.63 1.82 1.99 2.19 2.20 2.12 2.05 2.12 2.14 2.12 2.24 2.39 2.41 2.38 2.39 2.57 2.68 2.85 2.84 2.74 2.58 2.45 2.25 2.06 1.72 1.78 1.64 1.38 1.37 1.28
0.16 0.19 0.24 0.25 0.25 0.27 0.32 0.39 0.51 0.72 0.87 0.97 1.12 1.29 1.50 1.78 1.92 2.02 2.06 2.07 2.07 1.95 1.87 1.98 2.09 2.18 2.23 2.21 2.27 2.42 2.56 2.73 2.87 2.79 2.60 2.47 2.33 2.13 2.00 1.73 1.56 1.63 1.46
0.29 0.35 0.45 0.42 0.40 0.43 0.51 0.57 0.64 0.74 0.79 0.79 0.87 1.00 1.16 1.38 1.52 1.61 1.81 1.88 1.92 1.86 1.81 1.79 1.87 1.95 1.99 2.09 2.26 2.25 2.27 2.45 2.64 2.63 2.56 2.53 2.31 2.19 2.23 2.06 1.72 1.63 1.52
0.41 0.56 0.67 0.72 0.67 0.65 0.66 0.63 0.63 0.61 0.62 0.66 0.73 0.81 0.87 1.02 1.13 1.21 1.37 1.50 1.50 1.48 1.47 1.53 1.63 1.78 1.88 1.98 2.12 2.16 2.12 2.20 2.26 2.27 2.38 2.44 2.33 2.13 2.07 2.09 2.15 1.90 1.65
0.58 0.74 0.87 0.94 0.90 0.81 0.74 0.69 0.69 0.66 0.59 0.61 0.69 0.76 0.81 0.82 0.85 0.89 0.88 0.97 1.06 1.09 1.14 1.20 1.34 1.54 1.68 1.75 1.86 2.00 1.99 2.05 2.05 2.11 2.17 2.18 2.22 2.08 1.92 1.88 1.96 2.05 1.84
0.81 0.92 0.99 0.98 0.97 1.02 0.96 0.79 0.72 0.72 0.66 0.74 0.75 0.73 0.71 0.70 0.68 0.72 0.77 0.78 0.87 0.98 1.08 1.09 1.17 1.29 1.39 1.50 1.68 1.82 1.90 1.93 1.89 1.88 1.95 2.00 2.06 2.06 2.03 1.98 1.96 1.92 1.86
1.00 1.02 1.09 1.02 0.90 0.90 0.88 0.86 0.81 0.75 0.76 0.81 0.81 0.71 0.68 0.68 0.68 0.65 0.68 0.76 0.85 0.95 1.01 1.06 1.11 1.15 1.24 1.30 1.41 1.56 1.70 1.73 1.74 1.65 1.68 1.80 1.86 2.02 2.06 2.01 1.96 1.94 1.86
0.95 0.98 1.05 0.97 0.82 0.77 0.68 0.72 0.80 0.81 0.87 0.87 0.81 0.72 0.72 0.75 0.80 0.78 0.70 0.71 0.77 0.79 0.90 1.04 1.04 1.05 1.10 1.18 1.29 1.39 1.45 1.54 1.51 1.43 1.45 1.56 1.63 1.77 1.89 1.99 1.90 1.90 1.85
0.73 0.72 0.74 0.80 0.76 0.72 0.65 0.71 0.76 0.82 0.86 0.88 0.86 0.77 0.67 0.70 0.75 0.76 0.68 0.66 0.70 0.74 0.88 1.02 1.14 1.07 0.97 1.06 1.17 1.22 1.25 1.26 1.22 1.21 1.23 1.29 1.37 1.50 1.62 1.73 1.82 1.83 1.76
0.53 0.51 0.47 0.53 0.55 0.57 0.62 0.67 0.78 0.90 0.94 0.92 0.86 0.83 0.77 0.79 0.74 0.64 0.62 0.64 0.63 0.61 0.68 0.83 0.94 0.99 0.95 0.91 0.92 0.97 1.12 1.12 1.04 0.96 0.96 0.98 1.01 1.14 1.28 1.39 1.54 1.70 1.82
0.38 0.36 0.33 0.33 0.35 0.38 0.46 0.53 0.66 0.82 0.94 0.99 0.94 0.86 0.81 0.71 0.64 0.58 0.51 0.52 0.48 0.48 0.54 0.70 0.88 0.94 0.94 0.98 0.97 0.90 0.93 0.99 1.01 0.95 0.87 0.80 0.79 0.87 0.97 1.08 1.34 1.54 1.69
0.27 0.24 0.24 0.22 0.24 0.30 0.36 0.37 0.49 0.64 0.75 0.80 0.82 0.83 0.79 0.63 0.55 0.48 0.42 0.40 0.41 0.42 0.45 0.53 0.69 0.86 0.84 0.99 1.04 0.98 0.90 0.90 0.90 0.90 0.90 0.89 0.84 0.73 0.69 0.75 0.92 1.14 1.36
0.24 0.21 0.20 0.21 0.23 0.30 0.32 0.33 0.42 0.53 0.58 0.62 0.65 0.68 0.64 0.50 0.45 0.36 0.32 0.34 0.36 0.38 0.41 0.47 0.59 0.74 0.89 0.92 0.83 0.92 0.93 0.89 0.90 0.87 0.87 0.91 0.90 0.94 0.84 0.77 0.75 0.78 0.95
0.16 0.21 0.18 0.17 0.19 0.24 0.29 0.37 0.40 0.42 0.43 0.47 0.50 0.49 0.49 0.44 0.37 0.29 0.29 0.30 0.34 0.37 0.39 0.43 0.49 0.57 0.76 0.81 0.72 0.90 0.94 0.95 0.94 0.92 0.94 0.98 1.02 0.99 1.09 1.06 0.97 0.90 0.89
0.07 0.10 0.09 0.09 0.10 0.10 0.11 0.14 0.17 0.20 0.24 0.32 0.38 0.41 0.41 0.38 0.32 0.28 0.34 0.40 0.40 0.39 0.38 0.39 0.41 0.44 0.53 0.62 0.60 0.74 0.88 0.98 0.97 0.88 0.89 0.95 0.99 1.18 1.21 1.12 1.11 1.04 0.98
0.02 0.03 0.03 0.03 0.03 0.03 0.03 0.03 0.05 0.10 0.13 0.20 0.25 0.29 0.32 0.36 0.39 0.47 0.55 0.56 0.52 0.46 0.42 0.39 0.38 0.40 0.43 0.56 0.45 0.57 0.74 0.91 1.00 0.94 0.91 1.06 1.03 1.04 1.00 0.96 1.15 1.13 1.03
0.01 0.01 0.01 0.01 0.01 0.00 0.00 0.01 0.02 0.02 0.03 0.04 0.10 0.19 0.30 0.36 0.45 0.57 0.59 0.58 0.53 0.44 0.40 0.38 0.36 0.36 0.45 0.60 0.54 0.61 0.71 0.83 0.92 0.95 0.97 0.95 1.03 0.86 0.81 0.86 1.01 1.15 1.09
0.01 0.00 0.00 0.00 0.00 0.00 0.00 0.00 0.00 0.01 0.01 0.03 0.08 0.13 0.21 0.30 0.43 0.52 0.51 0.50 0.49 0.46 0.42 0.43 0.40 0.42 0.53 0.60 0.61 0.61 0.66 0.74 0.81 0.84 0.76 0.75 0.83 0.69 0.64 0.62 0.76 0.93 0.95
0.01 0.00 0.00 0.00 0.00 0.00 0.00 0.00 0.00 0.00 0.00 0.01 0.03 0.06 0.12 0.23 0.37 0.40 0.40 0.43 0.45 0.44 0.43 0.42 0.40 0.39 0.47 0.57 0.67 0.57 0.50 0.49 0.57 0.64 0.63 0.56 0.53 0.53 0.49 0.52 0.62 0.68 0.82
0.01 0.00 0.00 0.00 0.00 0.00 0.00 0.00 0.00 0.00 0.00 0.00 0.01 0.01 0.02 0.05 0.11 0.16 0.20 0.26 0.32 0.33 0.32 0.35 0.39 0.42 0.42 0.43 0.48 0.51 0.48 0.42 0.42 0.42 0.36 0.35 0.38 0.44 0.46 0.47 0.49 0.55 0.76
0.01 0.00 0.00 0.00 0.00 0.00 0.00 0.00 0.00 0.00 0.00 0.00 0.00 0.01 0.02 0.04 0.04 0.07 0.10 0.13 0.16 0.19 0.25 0.31 0.34 0.35 0.39 0.39 0.42 0.44 0.44 0.49 0.53 0.55 0.47 0.40 0.39 0.40 0.44 0.47 0.52 0.64 0.75
0.01 0.01 0.01 0.00 0.00 0.00 0.00 0.00 0.00 0.00 0.00 0.00 0.00 0.00 0.01 0.02 0.02 0.03 0.04 0.06 0.07 0.10 0.12 0.15 0.18 0.19 0.25 0.32 0.35 0.38 0.40 0.43 0.49 0.54 0.55 0.54 0.56 0.56 0.55 0.53 0.50 0.51 0.60